GW6157 Weather Reports


time (UTC)temp
F
wind
direction
speed
knots
gust
knots
rain 1hr
in
rain 24hr
in
rain mn
in
humidity
%
barometer
mb
20260507174521 60 229 4.3 9.6 0.00 0.65 0.62 67 1001.8
20260507173031 58 221 4.3 7.8 0.00 0.65 0.62 73 1001.8
20260507171509 58 230 1.7 8.7 0.00 0.65 0.62 76 1001.9
20260507170015 57 227 1.7 7.8 0.00 0.65 0.62 80 1002.0
20260507164524 57 217 2.6 7.8 0.00 0.65 0.62 79 1002.5
20260507163022 57 284 5.2 8.7 0.00 0.65 0.62 86 1002.7
20260507161525 55 203 0.9 6.1 0.00 0.65 0.62 89 1002.9
20260507160013 54 252 1.7 4.3 0.00 0.65 0.62 94 1002.9
20260507154515 51 279 1.7 4.3 0.00 0.65 0.62 92 1003.1
20260507153020 51 246 2.6 5.2 0.00 0.65 0.62 93 1003.3
20260507151525 50 263 1.7 4.3 0.00 0.65 0.62 94 1003.8
20260507150028 49 192 0.9 3.5 0.00 0.65 0.62 94 1003.2
20260507144522 49 240 2.6 6.1 0.00 0.65 0.62 94 1004.2
20260507143020 49 257 0.9 4.3 0.00 0.65 0.62 96 1003.6
20260507141523 49 202 0.9 1.7 0.01 0.65 0.62 97 1003.3
20260507140032 49 188 1.7 4.3 0.03 0.65 0.62 97 1003.9
20260507134508 48 212 1.7 5.2 0.03 0.65 0.62 97 1003.6
20260507133002 48 196 2.6 4.3 0.04 0.65 0.62 97 1003.4
20260507131504 48 244 0.9 4.3 0.04 0.64 0.61 97 1003.3
20260507124508 48 209 3.5 5.2 0.02 0.62 0.58 96 1004.1
20260507123000 48 213 2.6 5.2 0.01 0.61 0.58 96 1003.8
20260507121518 48 212 2.6 7.0 0.00 0.60 0.57 96 1003.9
20260507120007 48 203 2.6 4.3 0.00 0.60 0.57 97 1003.6
20260507114525 47 194 2.6 5.2 0.00 0.60 0.57 96 1003.6
20260507113015 47 254 2.6 5.2 0.00 0.60 0.57 96 1003.4
20260507111503 47 217 4.3 7.0 0.00 0.60 0.57 96 1003.7
20260507110024 47 219 4.3 7.8 0.01 0.60 0.57 96 1003.8
20260507104523 48 187 2.6 7.0 0.02 0.60 0.57 96 1003.9
20260507103012 48 150 1.7 6.1 0.02 0.60 0.57 95 1003.3
20260507101517 48 184 0.9 5.2 0.03 0.60 0.57 95 1003.0
20260507100007 48 212 3.5 7.0 0.07 0.58 0.56 95 1003.3
20260507094503 48 201 1.7 5.2 0.07 0.58 0.55 95 1003.0
20260507093028 48 257 5.2 11.3 0.07 0.58 0.55 95 1003.4
20260507091535 49 128 0.9 5.2 0.07 0.57 0.54 95 1002.6
20260507090023 49 181 2.6 9.6 0.03 0.52 0.49 95 1002.6
20260507084503 49 174 3.5 9.6 0.03 0.51 0.48 94 1002.6
20260507083008 50 189 5.2 16.5 0.03 0.51 0.48 94 1002.9
20260507081507 51 225 11.3 17.4 0.03 0.50 0.47 93 1003.0
20260507080029 51 195 5.2 11.3 0.03 0.49 0.46 94 1002.7
20260507074520 52 217 9.6 16.5 0.06 0.48 0.45 94 1002.9
20260507073023 53 231 11.3 20.0 0.10 0.48 0.45 93 1003.1
20260507071505 54 174 8.7 19.1 0.12 0.47 0.44 93 1003.1
20260507070013 54 192 7.0 18.2 0.16 0.46 0.43 94 1002.9
20260507064521 55 218 4.3 16.5 0.15 0.42 0.39 94 1003.1
20260507063022 55 171 8.7 21.7 0.16 0.38 0.35 93 1003.3
20260507061527 56 150 6.1 16.5 0.15 0.35 0.32 94 1003.6
20260507060011 56 213 6.1 16.5 0.12 0.30 0.27 94 1003.8
20260507054508 56 142 6.1 16.5 0.10 0.27 0.24 94 1004.0
20260507053004 56 158 2.6 15.6 0.07 0.22 0.19 94 1004.2
20260507051524 56 115 4.3 12.2 0.06 0.20 0.17 94 1004.6
20260507050006 56 155 5.2 13.0 0.05 0.18 0.15 94 1005.0
20260507044512 56 174 3.5 11.3 0.07 0.17 0.14 94 1005.3
20260507043011 56 172 7.0 24.3 0.11 0.15 0.12 93 1005.8
20260507041503 56 159 7.8 19.1 0.11 0.14 0.11 93 1006.2
20260507040011 56 146 3.5 12.2 0.10 0.13 0.10 93 1006.4
20260507034509 56 149 4.3 13.0 0.08 0.10 0.07 92 1007.1
20260507033016 56 148 6.1 16.5 0.02 0.04 0.01 91 1007.2
20260507031504 56 130 6.1 20.9 0.01 0.03 0.00 90 1007.6
20260507030008 56 171 5.2 13.0 0.01 0.03 0.00 91 1007.9
20260507023011 55 182 4.3 13.9 0.00 0.02 0.02 91 1008.4
20260507021517 54 193 5.2 10.4 0.00 0.02 0.02 91 1008.8
20260507020003 54 216 7.8 11.3 0.01 0.02 0.02 91 1009.2
20260507014507 53 182 5.2 12.2 0.02 0.02 0.02 92 1009.5
20260507013028 53 215 3.5 7.8 0.02 0.02 0.02 93 1009.4
20260507011518 52 202 2.6 10.4 0.02 0.02 0.02 93 1009.8
20260507010026 52 227 3.5 11.3 0.01 0.01 0.01 92 1010.5
20260507004506 53 194 5.2 13.0 0.00 0.00 0.00 92 1010.8
20260507003009 52 219 4.3 10.4 0.00 0.00 0.00 91 1011.0
20260507001514 53 224 7.8 17.4 0.00 0.00 0.00 89 1011.1
20260507000018 54 200 7.0 14.8 0.00 0.00 0.00 87 1011.1
20260506234524 55 205 8.7 22.6 0.00 0.00 0.00 85 1011.4
20260506233009 55 218 7.8 18.2 0.00 0.00 0.00 85 1011.3
20260506231512 55 211 7.0 16.5 0.00 0.00 0.00 86 1011.2
20260506230015 55 225 5.2 13.0 0.00 0.00 0.00 85 1011.1
20260506224519 57 241 8.7 17.4 0.00 0.00 0.00 84 1011.1
20260506223021 57 223 6.1 18.2 0.00 0.00 0.00 84 1011.1
20260506220012 57 183 5.2 14.8 0.00 0.00 0.00 84 1011.1
20260506214535 57 213 7.8 18.2 0.00 0.00 0.00 84 1011.3
20260506213004 57 192 8.7 17.4 0.00 0.00 0.00 83 1011.4
20260506210008 57 207 9.6 19.1 0.00 0.00 0.00 83 1011.6
20260506204509 57 183 6.1 19.1 0.00 0.00 0.00 82 1011.3
20260506203007 57 206 9.6 18.2 0.00 0.00 0.00 84 1011.4
20260506200008 57 217 7.8 17.4 0.00 0.00 0.00 83 1011.6
20260506194511 57 208 6.1 20.0 0.00 0.00 0.00 83 1011.4
20260506193015 57 162 5.2 19.1 0.00 0.00 0.00 84 1011.5
20260506191512 56 173 6.1 21.7 0.00 0.00 0.00 84 1011.5
20260506190012 56 178 7.8 19.1 0.00 0.00 0.00 84 1011.7
20260506184520 56 191 10.4 19.1 0.00 0.00 0.00 85 1011.7
20260506183022 55 225 7.8 22.6 0.00 0.00 0.00 86 1012.1
20260506181517 54 177 11.3 19.1 0.00 0.00 0.00 86 1012.3
20260506180007 54 210 10.4 21.7 0.00 0.00 0.00 86 1012.5